This demonstration page uses our WeatherBlox Daily Observations layout. Learn more.

Left ArrowRight Arrow

Hourly Observations for May 22, 2019

Temp ( °F °C ) Dew Point ( °F °C ) Humidity (%) Winds ( mph kmh ) Pressure ( in mb ) Visibility ( mi km ) Precip ( " mm )
12:15 am 00:15 Cloudy with Drizzle 46 7.5 46 7.5 100 100 W 17 28 29.36 994 10 16 N/A
12:35 am 00:35 Cloudy 45 7.3 45 7.2 99 99 W 15 24 29.38 995 10 16 N/A
12:55 am 00:55 Cloudy 45 7.2 45 7 99 99 W 20 31 29.39 995 10 16 N/A
1:15 am 01:15 Cloudy 45 7 44 6.7 98 98 W 17 28 29.40 996 10 16 N/A
1:35 am 01:35 Cloudy with Mist and Fog 43 6.3 43 6.1 99 99 W 20 31 29.42 996 5 8 N/A
1:55 am 01:55 Cloudy with Mist and Fog 42 5.8 42 5.8 100 100 W 18 30 29.43 997 5 8 N/A
2:15 am 02:15 Cloudy 42 5.5 42 5.5 100 100 WSW 18 30 29.44 997 7 11 N/A
2:35 am 02:35 Cloudy 42 5.3 41 5.1 99 99 W 23 37 29.45 997 10 16 N/A
2:55 am 02:55 Cloudy 41 5.1 40 4.6 97 97 WSW 21 33 29.48 998 10 16 N/A
3:15 am 03:15 Cloudy 40 4.7 39 4.1 96 96 W 20 31 29.48 998 10 16 N/A
3:35 am 03:35 Mostly Cloudy 40 4.3 38 3.6 95 95 W 21 33 29.49 999 10 16 N/A
3:55 am 03:55 Mostly Cloudy 40 4.2 38 3.5 95 95 W 24 39 29.48 998 10 16 N/A
4:15 am 04:15 Partly Cloudy 40 4.2 38 3.4 95 95 W 22 35 29.48 998 10 16 N/A
4:35 am 04:35 Clear 39 4.1 38 3.2 94 94 W 21 33 29.50 999 10 16 N/A
4:55 am 04:55 Clear 39 4.1 38 3.2 94 94 W 17 28 29.52 999 10 16 N/A
5:15 am 05:15 Clear 39 4 38 3.1 94 94 W 17 28 29.53 1000 10 16 N/A
5:35 am 05:35 Mostly Cloudy 39 4 38 3.2 95 95 W 16 26 29.53 1000 10 16 N/A
5:55 am 05:55 Cloudy 39 3.8 38 3.1 95 95 W 14 22 29.55 1001 10 16 N/A
6:15 am 06:15 Cloudy 39 3.7 37 3 95 95 WSW 14 22 29.58 1002 10 16 N/A
6:35 am 06:35 Partly Cloudy 38 3.5 37 2.9 96 96 WSW 10 17 29.59 1002 10 16 N/A
6:55 am 06:55 Sunny 39 3.7 37 3 95 95 SW 12 19 29.60 1002 10 16 N/A
7:15 am 07:15 Sunny 39 4 38 3.1 94 94 SW 14 22 29.62 1003 10 16 N/A
7:35 am 07:35 Sunny 40 4.5 38 3.5 93 93 SW 15 24 29.62 1003 10 16 N/A
7:55 am 07:55 Partly Cloudy 41 5 38 3.6 91 91 WSW 15 24 29.62 1003 10 16 N/A
8:15 am 08:15 Partly Cloudy 42 5.6 39 4 90 90 WSW 17 28 29.63 1003 10 16 N/A
8:35 am 08:35 Partly Cloudy 43 6 39 4.1 88 88 WSW 18 30 29.64 1004 10 16 N/A
8:55 am 08:55 Partly Cloudy 44 6.5 40 4.4 87 87 WSW 18 30 29.63 1004 10 16 N/A
9:15 am 09:15 Partly Cloudy 45 7 41 4.8 86 86 WSW 18 30 29.65 1004 10 16 N/A
9:35 am 09:35 Partly Cloudy 45 7.4 41 5 85 85 W 21 33 29.65 1004 10 16 N/A
9:55 am 09:55 Partly Cloudy 47 8.1 42 5.5 84 84 W 16 26 29.65 1004 10 16 N/A
10:15 am 10:15 Partly Cloudy 48 8.9 42 5.7 81 81 W 20 31 29.65 1004 10 16 N/A
10:35 am 10:35 Partly Cloudy 49 9.6 43 6.1 79 79 W 20 31 29.66 1004 10 16 N/A
10:55 am 10:55 Sunny 50 10.1 43 6.1 76 76 W 23 37 29.65 1004 10 16 N/A
11:15 am 11:15 Partly Cloudy 51 10.8 43 6.2 73 73 W 22 35 29.66 1004 10 16 N/A
11:35 am 11:35 Partly Cloudy 52 11.3 43 6.1 71 71 W 22 35 29.66 1004 10 16 N/A
11:55 am 11:55 Partly Cloudy 53 11.9 43 6.3 69 69 W 20 31 29.68 1005 10 16 N/A
12:15 pm 12:15 Mostly Cloudy 55 12.5 44 6.5 67 67 W 16 26 29.68 1005 10 16 N/A
12:35 pm 12:35 Partly Cloudy 55 12.5 44 6.4 67 67 W 25 41 29.68 1005 10 16 N/A
12:55 pm 12:55 Partly Cloudy 55 13 44 6.5 65 65 W 18 30 29.69 1005 10 16 N/A
1:15 pm 13:15 Sunny 56 13.2 43 6.3 63 63 W 16 26 29.68 1005 10 16 N/A
1:35 pm 13:35 Partly Cloudy 56 13.5 43 6 61 61 W 13 20 29.69 1005 10 16 N/A
1:55 pm 13:55 Partly Cloudy 57 13.9 43 6 59 59 W 18 30 29.70 1006 10 16 N/A
2:15 pm 14:15 Partly Cloudy 58 14.5 43 6.3 58 58 WSW 14 22 29.69 1006 10 16 N/A
2:35 pm 14:35 Partly Cloudy 59 15.1 44 6.9 58 58 W 17 28 29.70 1006 10 16 N/A
2:55 pm 14:55 Partly Cloudy 59 15.1 43 6.1 55 55 W 18 30 29.71 1006 10 16 N/A
3:15 pm 15:15 Partly Cloudy 60 15.5 43 6.3 55 55 W 15 24 29.71 1006 10 16 N/A
3:35 pm 15:35 Mostly Cloudy 61 16.3 44 6.7 53 53 W 22 35 29.71 1006 10 16 N/A
3:55 pm 15:55 Partly Cloudy 61 15.9 44 6.5 54 54 W 17 28 29.71 1006 10 16 N/A
4:15 pm 16:15 Partly Cloudy 62 16.4 44 6.5 52 52 W 16 26 29.72 1006 10 16 N/A
4:35 pm 16:35 Partly Cloudy 62 16.4 43 6.1 51 51 W 14 22 29.73 1007 10 16 N/A
4:55 pm 16:55 Sunny 61 16.1 43 6 51 51 W 14 22 29.74 1007 10 16 N/A
5:15 pm 17:15 Sunny 61 16.2 43 5.9 51 51 W 15 24 29.75 1007 10 16 N/A
5:35 pm 17:35 Sunny 61 16 42 5.5 50 50 W 20 31 29.76 1008 10 16 N/A
5:55 pm 17:55 Sunny 61 15.9 43 6 52 52 W 15 24 29.77 1008 10 16 N/A
6:15 pm 18:15 Sunny 62 16.5 43 6.3 51 51 W 20 31 29.78 1008 10 16 N/A
6:35 pm 18:35 Sunny 61 16.3 42 5.8 50 50 W 18 30 29.78 1008 10 16 N/A
6:55 pm 18:55 Sunny 60 15.8 42 5.6 51 51 W 17 28 29.79 1009 10 16 N/A
7:15 pm 19:15 Sunny 60 15.4 42 5.6 52 52 W 16 26 29.81 1009 10 16 N/A
7:35 pm 19:35 Sunny 59 15.1 42 5.5 53 53 WNW 13 20 29.82 1010 10 16 N/A
7:55 pm 19:55 Sunny 58 14.6 42 5.6 55 55 WNW 12 19 29.83 1010 10 16 N/A
8:15 pm 20:15 Sunny 57 14 42 5.7 58 58 WNW 9 15 29.85 1011 10 16 N/A
8:35 pm 20:35 Sunny 56 13.1 42 5.5 60 60 WNW 9 15 29.87 1011 10 16 N/A
8:55 pm 20:55 Clear 54 12 42 5.5 65 65 WNW 3 6 29.89 1012 10 16 N/A
9:15 pm 21:15 Clear 52 11.1 42 5.7 70 70 WNW 5 7 29.89 1012 10 16 N/A
9:35 pm 21:35 Clear 51 10.7 43 5.9 72 72 W 3 6 29.92 1013 10 16 N/A
9:55 pm 21:55 Clear 50 10 42 5.7 75 75 W 3 6 29.94 1014 10 16 N/A
10:15 pm 22:15 Clear 51 10.4 42 5.7 73 73 W 3 6 29.96 1015 10 16 N/A
10:35 pm 22:35 Clear 50 9.9 43 6 77 77 N N/A 29.97 1015 10 16 N/A
10:55 pm 22:55 Clear 49 9.2 43 5.9 80 80 SW 3 6 29.99 1016 10 16 N/A
11:15 pm 23:15 Clear 46 7.5 43 6 90 90 WSW 5 7 30.02 1016 10 16 N/A
11:35 pm 23:35 Clear 47 8.6 43 5.9 83 83 W 6 9 30.01 1016 10 16 N/A
11:55 pm 23:55 Clear 49 9.2 41 5.1 76 76 WNW 5 7 30.01 1016 10 16 N/A

Powered by AerisWeather